ZAT YCBG-YCBG

Flight info

Callsign ZAT
Flight time 0h 46m
Altitude 3500
Route VFR
Aircraft AS50/M-SDE3FGHIRWY/H

Departure

Time 2026-05-01 13:12
Airport Cambridge Aerodrome (YCBG)

Arrival

Time 2026-05-01 13:58
Airport Cambridge Aerodrome (YCBG)
Time Latitude Longitude Altitude Speed Heading
2026-05-01 12:59 -42.82882 147.47708 36 ft 0 kts 194°
2026-05-01 13:09 -42.82888 147.47746 101 ft 20 kts 81°
2026-05-01 13:10 -42.82676 147.47928 216 ft 59 kts 321°
2026-05-01 13:10 -42.82295 147.47429 241 ft 86 kts 317°
2026-05-01 13:10 -42.81830 147.47635 413 ft 84 kts 63°
2026-05-01 13:10 -42.81943 147.48457 469 ft 99 kts 112°
2026-05-01 13:11 -42.82382 147.49257 426 ft 111 kts 129°
2026-05-01 13:11 -42.82950 147.49992 432 ft 113 kts 132°
2026-05-01 13:11 -42.83499 147.50753 466 ft 112 kts 129°
2026-05-01 13:11 -42.84034 147.51547 450 ft 115 kts 129°
2026-05-01 13:12 -42.84656 147.52208 474 ft 114 kts 154°
2026-05-01 13:12 -42.85377 147.52304 704 ft 97 kts 177°
2026-05-01 13:12 -42.86019 147.52234 924 ft 90 kts 180°
2026-05-01 13:12 -42.86636 147.52140 1105 ft 88 kts 181°
2026-05-01 13:13 -42.87249 147.52041 1278 ft 95 kts 184°
2026-05-01 13:13 -42.87985 147.51884 1247 ft 115 kts 188°
2026-05-01 13:13 -42.88799 147.51680 1233 ft 122 kts 190°
2026-05-01 13:13 -42.89642 147.51467 1226 ft 124 kts 189°
2026-05-01 13:14 -42.90494 147.51245 1240 ft 125 kts 190°
2026-05-01 13:14 -42.91348 147.51075 1234 ft 125 kts 182°
2026-05-01 13:14 -42.92226 147.51045 1238 ft 126 kts 178°
2026-05-01 13:14 -42.93088 147.51093 1242 ft 123 kts 171°
2026-05-01 13:15 -42.93941 147.51262 1237 ft 125 kts 167°
2026-05-01 13:15 -42.94800 147.51456 1234 ft 125 kts 166°
2026-05-01 13:15 -42.95660 147.51653 1232 ft 125 kts 167°
2026-05-01 13:15 -42.96524 147.51846 1231 ft 126 kts 167°
2026-05-01 13:16 -42.97387 147.52029 1228 ft 126 kts 167°
2026-05-01 13:16 -42.98251 147.52206 1229 ft 126 kts 163°
2026-05-01 13:16 -42.99080 147.52589 1229 ft 126 kts 156°
2026-05-01 13:17 -43.01383 147.54366 1227 ft 128 kts 145°
2026-05-01 13:17 -43.02145 147.54986 1227 ft 126 kts 147°
2026-05-01 13:18 -43.03672 147.56229 1221 ft 128 kts 146°
2026-05-01 13:18 -43.04446 147.56840 1221 ft 129 kts 147°
2026-05-01 13:18 -43.05218 147.57457 1221 ft 128 kts 146°
2026-05-01 13:18 -43.05985 147.58060 1224 ft 128 kts 147°
2026-05-01 13:19 -43.06748 147.58666 1225 ft 129 kts 147°
2026-05-01 13:19 -43.07525 147.59282 1211 ft 129 kts 148°
2026-05-01 13:19 -43.09071 147.60530 1231 ft 129 kts 148°
2026-05-01 13:20 -43.09848 147.61148 1221 ft 129 kts 148°
2026-05-01 13:20 -43.10618 147.61756 1220 ft 127 kts 147°
2026-05-01 13:20 -43.11391 147.62361 1234 ft 129 kts 147°
2026-05-01 13:21 -43.12937 147.63579 1231 ft 128 kts 148°
2026-05-01 13:21 -43.13715 147.64183 1220 ft 129 kts 149°
2026-05-01 13:21 -43.14495 147.64795 1218 ft 129 kts 148°
2026-05-01 13:21 -43.15274 147.65418 1228 ft 130 kts 148°
2026-05-01 13:22 -43.16048 147.66054 1217 ft 130 kts 147°
2026-05-01 13:22 -43.16833 147.66683 1218 ft 131 kts 149°
2026-05-01 13:22 -43.17616 147.67340 1217 ft 132 kts 147°
2026-05-01 13:22 -43.18398 147.67997 1219 ft 132 kts 146°
2026-05-01 13:23 -43.19162 147.68674 1214 ft 129 kts 144°
2026-05-01 13:23 -43.19895 147.69384 1216 ft 126 kts 142°
2026-05-01 13:23 -43.20612 147.70071 1234 ft 129 kts 142°
2026-05-01 13:23 -43.21346 147.70772 1223 ft 128 kts 137°
2026-05-01 13:24 -43.22018 147.71571 1217 ft 127 kts 132°
2026-05-01 13:24 -43.22665 147.72389 1218 ft 127 kts 131°
2026-05-01 13:24 -43.23175 147.73337 1224 ft 121 kts 103°
2026-05-01 13:25 -43.23524 147.75546 1219 ft 118 kts 90°
2026-05-01 13:25 -43.23648 147.76662 1219 ft 117 kts 90°
2026-05-01 13:25 -43.23773 147.77765 1219 ft 117 kts 89°
2026-05-01 13:25 -43.23893 147.78865 1219 ft 117 kts 89°
2026-05-01 13:26 -43.24004 147.79929 1200 ft 104 kts 88°
2026-05-01 13:26 -43.24092 147.80906 1222 ft 106 kts 90°
2026-05-01 13:26 -43.24205 147.81954 1216 ft 115 kts 90°
2026-05-01 13:26 -43.24337 147.83055 1205 ft 119 kts 90°
2026-05-01 13:27 -43.24443 147.83792 1211 ft 120 kts 91°
2026-05-01 13:27 -43.24672 147.85321 1222 ft 124 kts 91°
2026-05-01 13:27 -43.24788 147.87256 1217 ft 122 kts 81°
2026-05-01 13:28 -43.24794 147.89975 1223 ft 123 kts 79°
2026-05-01 13:28 -43.24800 147.90765 1221 ft 123 kts 80°
2026-05-01 13:29 -43.24855 147.93019 1219 ft 121 kts 81°
2026-05-01 13:29 -43.24910 147.95316 1228 ft 121 kts 82°
2026-05-01 13:30 -43.24676 147.99713 1090 ft 95 kts 51°
2026-05-01 13:31 -43.23917 148.00582 946 ft 45 kts 322°
2026-05-01 13:31 -43.22351 147.99830 1223 ft 139 kts 346°
2026-05-01 13:32 -43.20500 147.99214 1598 ft 134 kts 337°
2026-05-01 13:33 -43.17931 147.97963 2156 ft 129 kts 338°
2026-05-01 13:33 -43.16105 147.97383 2071 ft 144 kts 340°
2026-05-01 13:34 -43.15598 147.98992 2869 ft 157 kts 158°
2026-05-01 13:34 -43.17764 147.99095 2234 ft 148 kts 197°
2026-05-01 13:35 -43.19435 147.98104 1803 ft 114 kts 256°
2026-05-01 13:35 -43.19691 147.97263 1464 ft 84 kts 283°
2026-05-01 13:35 -43.19781 147.96489 839 ft 23 kts 173°
2026-05-01 13:36 -43.19862 147.96482 823 ft 3 kts 259°
2026-05-01 13:36 -43.19864 147.96477 808 ft 0 kts 247°
2026-05-01 13:36 -43.19864 147.96478 809 ft 0 kts 227°
2026-05-01 13:37 -43.19775 147.96391 1021 ft 48 kts 329°
2026-05-01 13:37 -43.19322 147.96088 975 ft 92 kts 332°
2026-05-01 13:37 -43.18720 147.95599 861 ft 105 kts 329°
2026-05-01 13:37 -43.18218 147.95169 917 ft 67 kts 334°
2026-05-01 13:38 -43.17935 147.95017 791 ft 9 kts 103°
2026-05-01 13:38 -43.17944 147.95036 762 ft 1 kts 74°
2026-05-01 13:38 -43.17944 147.95033 761 ft 0 kts 79°
2026-05-01 13:39 -43.17944 147.95032 766 ft 1 kts 70°
2026-05-01 13:39 -43.17896 147.94818 912 ft 62 kts 292°
2026-05-01 13:39 -43.17682 147.94024 831 ft 109 kts 293°
2026-05-01 13:39 -43.17428 147.92997 840 ft 120 kts 289°
2026-05-01 13:40 -43.17251 147.91809 829 ft 133 kts 282°
2026-05-01 13:40 -43.17080 147.90599 744 ft 111 kts 297°
2026-05-01 13:40 -43.16828 147.90010 632 ft 40 kts
2026-05-01 13:40 -43.16758 147.90128 527 ft 12 kts 190°
2026-05-01 13:41 -43.16807 147.90066 510 ft 4 kts 249°
2026-05-01 13:41 -43.16810 147.90055 498 ft 0 kts 249°
2026-05-01 13:41 -43.16815 147.89996 614 ft 31 kts 290°
2026-05-01 13:42 -43.16608 147.89504 702 ft 75 kts 318°
2026-05-01 13:42 -43.16163 147.88982 803 ft 91 kts 324°
2026-05-01 13:42 -43.15638 147.88410 990 ft 101 kts 320°
2026-05-01 13:42 -43.15136 147.87707 1144 ft 105 kts 316°
2026-05-01 13:43 -43.14651 147.86972 1344 ft 103 kts 315°
2026-05-01 13:43 -43.14186 147.86242 1545 ft 100 kts 314°
2026-05-01 13:43 -43.13727 147.85537 1710 ft 98 kts 315°
2026-05-01 13:43 -43.13272 147.84835 1836 ft 103 kts 315°
2026-05-01 13:44 -43.12766 147.84054 1799 ft 113 kts 314°
2026-05-01 13:44 -43.12227 147.83258 1790 ft 115 kts 315°
2026-05-01 13:44 -43.11674 147.82471 1796 ft 118 kts 316°
2026-05-01 13:44 -43.11104 147.81644 1790 ft 120 kts 314°
2026-05-01 13:45 -43.10526 147.80831 1782 ft 119 kts 317°
2026-05-01 13:45 -43.09962 147.80023 1809 ft 119 kts 316°
2026-05-01 13:45 -43.09395 147.79189 1798 ft 120 kts 315°
2026-05-01 13:45 -43.08816 147.78341 1796 ft 123 kts 316°
2026-05-01 13:46 -43.08233 147.77474 1800 ft 125 kts 315°
2026-05-01 13:46 -43.07634 147.76590 1793 ft 126 kts 316°
2026-05-01 13:46 -43.07057 147.75731 1795 ft 121 kts 316°
2026-05-01 13:46 -43.06328 147.75212 1793 ft 121 kts 346°
2026-05-01 13:47 -43.05495 147.75133 1791 ft 120 kts 357°
2026-05-01 13:47 -43.04654 147.75204 1791 ft 123 kts 360°
2026-05-01 13:47 -43.03802 147.75312 1789 ft 121 kts
2026-05-01 13:47 -43.02972 147.75408 1790 ft 118 kts
2026-05-01 13:48 -43.02157 147.75495 1792 ft 118 kts 360°
2026-05-01 13:48 -43.01337 147.75577 1794 ft 118 kts 359°
2026-05-01 13:48 -43.00524 147.75651 1792 ft 116 kts 359°
2026-05-01 13:48 -42.99726 147.75721 1794 ft 116 kts 358°
2026-05-01 13:49 -42.98922 147.75791 1795 ft 116 kts 359°
2026-05-01 13:49 -42.98120 147.75858 1795 ft 116 kts 358°
2026-05-01 13:49 -42.97307 147.75918 1796 ft 118 kts 358°
2026-05-01 13:49 -42.96491 147.75969 1793 ft 117 kts 358°
2026-05-01 13:50 -42.95680 147.76019 1796 ft 117 kts 358°
2026-05-01 13:50 -42.94866 147.76061 1797 ft 116 kts 356°
2026-05-01 13:50 -42.94093 147.75833 1797 ft 113 kts 339°
2026-05-01 13:50 -42.93370 147.75402 1803 ft 115 kts 335°
2026-05-01 13:51 -42.92657 147.74894 1799 ft 116 kts 333°
2026-05-01 13:51 -42.91946 147.74368 1806 ft 116 kts 333°
2026-05-01 13:51 -42.91243 147.73829 1804 ft 116 kts 327°
2026-05-01 13:51 -42.90633 147.73102 1806 ft 118 kts 319°
2026-05-01 13:52 -42.90071 147.72275 1806 ft 119 kts 316°
2026-05-01 13:52 -42.89531 147.71442 1808 ft 119 kts 316°
2026-05-01 13:52 -42.88984 147.70591 1806 ft 120 kts 317°
2026-05-01 13:52 -42.88490 147.69660 1808 ft 122 kts 309°
2026-05-01 13:53 -42.88044 147.68654 1804 ft 124 kts 307°
2026-05-01 13:53 -42.87182 147.66595 1801 ft 127 kts 298°
2026-05-01 13:53 -42.86993 147.65400 1806 ft 131 kts 285°
2026-05-01 13:54 -42.86927 147.64150 1804 ft 133 kts 281°
2026-05-01 13:54 -42.86896 147.62883 1805 ft 134 kts 280°
2026-05-01 13:54 -42.86866 147.61609 1805 ft 135 kts 280°
2026-05-01 13:54 -42.86825 147.60331 1803 ft 134 kts 281°
2026-05-01 13:55 -42.86766 147.59070 1804 ft 132 kts 282°
2026-05-01 13:55 -42.86698 147.57834 1802 ft 130 kts 282°
2026-05-01 13:55 -42.86623 147.56626 1601 ft 122 kts 285°
2026-05-01 13:55 -42.86449 147.55595 1427 ft 101 kts 300°
2026-05-01 13:56 -42.86132 147.54812 1258 ft 94 kts 312°
2026-05-01 13:56 -42.85703 147.54053 997 ft 103 kts 314°
2026-05-01 13:56 -42.85234 147.53323 829 ft 103 kts 316°
2026-05-01 13:56 -42.84744 147.52611 685 ft 104 kts 316°
2026-05-01 13:57 -42.84233 147.51901 571 ft 104 kts 316°
2026-05-01 13:57 -42.83891 147.51451 508 ft 102 kts 318°
2026-05-01 13:57 -42.83279 147.50588 511 ft 90 kts 299°
2026-05-01 13:57 -42.83154 147.49750 436 ft 94 kts 282°
2026-05-01 13:58 -42.83046 147.48884 275 ft 87 kts 288°
2026-05-01 13:58 -42.82933 147.48214 88 ft 59 kts 294°
2026-05-01 13:58 -42.82857 147.47805 63 ft 31 kts 281°
2026-05-01 13:58 -42.82864 147.47669 37 ft 5 kts 192°
2026-05-01 13:59 -42.82870 147.47667 36 ft 0 kts 194°